TimeCDT,TemperatureF,Dew PointF,Humidity,Sea Level PressureIn,VisibilityMPH,Wind Direction,Wind SpeedMPH,Gust SpeedMPH,PrecipitationIn,Events,Conditions,WindDirDegrees,DateUTC
12:15 AM,25.5,21.7,86,30.13,10.0,Calm,Calm,-,N/A,,Clear,0,2012-10-08 05:15:00
12:35 AM,24.8,21.6,87,30.13,10.0,South,3.5,-,N/A,,Clear,170,2012-10-08 05:35:00
12:55 AM,23.4,20.8,90,30.13,10.0,South,3.5,-,N/A,,Clear,170,2012-10-08 05:55:00
1:15 AM,23.7,21.2,90,30.13,10.0,South,5.8,-,N/A,,Clear,170,2012-10-08 06:15:00
1:35 AM,23.7,21.2,90,30.13,10.0,South,5.8,-,N/A,,Clear,170,2012-10-08 06:35:00
1:55 AM,23.9,21.4,90,30.13,10.0,South,6.9,-,N/A,,Clear,180,2012-10-08 06:55:00
2:15 AM,24.8,21.9,89,30.13,10.0,South,5.8,-,N/A,,Clear,170,2012-10-08 07:15:00
2:35 AM,24.8,21.7,88,30.13,10.0,South,5.8,-,N/A,,Clear,170,2012-10-08 07:35:00
2:55 AM,24.8,21.9,89,30.12,10.0,South,5.8,-,N/A,,Clear,170,2012-10-08 07:55:00
3:15 AM,25.0,21.7,87,30.11,10.0,South,6.9,-,N/A,,Clear,170,2012-10-08 08:15:00
3:35 AM,26.4,22.6,86,30.11,10.0,South,5.8,-,N/A,,Clear,170,2012-10-08 08:35:00
3:55 AM,26.6,23.0,86,30.11,10.0,South,4.6,-,N/A,,Clear,170,2012-10-08 08:55:00
4:15 AM,26.6,23.0,86,30.11,10.0,South,6.9,-,N/A,,Clear,170,2012-10-08 09:15:00
4:35 AM,27.0,23.4,86,30.12,10.0,South,5.8,-,N/A,,Clear,170,2012-10-08 09:35:00
4:55 AM,27.5,23.9,86,30.12,10.0,South,5.8,-,N/A,,Clear,170,2012-10-08 09:55:00
5:15 AM,27.1,23.9,88,30.12,10.0,South,5.8,-,N/A,,Clear,170,2012-10-08 10:15:00
5:35 AM,27.9,24.8,88,30.11,10.0,SSE,6.9,-,N/A,,Clear,160,2012-10-08 10:35:00
5:55 AM,29.7,25.9,86,30.11,10.0,South,6.9,-,N/A,,Clear,170,2012-10-08 10:55:00
6:15 AM,29.7,26.6,88,30.11,10.0,South,8.1,-,N/A,,Clear,170,2012-10-08 11:15:00
6:35 AM,30.6,27.0,86,30.11,10.0,South,8.1,-,N/A,,Clear,180,2012-10-08 11:35:00
6:55 AM,31.6,27.5,85,30.12,10.0,South,8.1,-,N/A,,Clear,170,2012-10-08 11:55:00
7:15 AM,31.6,27.9,86,30.12,10.0,South,8.1,-,N/A,,Clear,180,2012-10-08 12:15:00
7:35 AM,32.5,28.4,85,30.11,10.0,South,5.8,-,N/A,,Clear,170,2012-10-08 12:35:00
7:55 AM,33.3,28.8,84,30.12,10.0,South,6.9,-,N/A,,Clear,170,2012-10-08 12:55:00
8:15 AM,36.0,30.6,81,30.11,10.0,South,8.1,-,N/A,,Clear,180,2012-10-08 13:15:00
8:35 AM,39.7,30.4,69,30.12,10.0,South,13.8,18.4,N/A,,Clear,190,2012-10-08 13:35:00
8:55 AM,41.5,30.6,65,30.12,10.0,SSW,11.5,-,N/A,,Clear,200,2012-10-08 13:55:00
9:15 AM,43.9,30.9,60,30.12,10.0,SSW,10.4,-,N/A,,Clear,200,2012-10-08 14:15:00
9:55 AM,48.4,30.2,49,30.11,10.0,SSW,12.7,19.6,N/A,,Clear,210,2012-10-08 14:55:00
10:15 AM,50.2,30.2,46,30.11,10.0,SSW,15.0,20.7,N/A,,Clear,210,2012-10-08 15:15:00
10:35 AM,52.2,29.7,42,30.10,10.0,SW,16.1,19.6,N/A,,Clear,230,2012-10-08 15:35:00
10:55 AM,53.1,29.3,40,30.10,10.0,SW,13.8,19.6,N/A,,Clear,220,2012-10-08 15:55:00
11:15 AM,54.7,29.1,38,30.09,10.0,SSW,12.7,20.7,N/A,,Clear,210,2012-10-08 16:15:00
11:35 AM,55.8,27.0,33,30.09,10.0,SW,15.0,23.0,N/A,,Clear,220,2012-10-08 16:35:00
11:55 AM,56.3,27.5,33,30.08,10.0,SSW,16.1,24.2,N/A,,Clear,200,2012-10-08 16:55:00
12:15 PM,57.2,27.3,32,30.07,10.0,SW,16.1,25.3,N/A,,Clear,220,2012-10-08 17:15:00
12:35 PM,57.6,26.8,31,30.06,10.0,WSW,19.6,27.6,N/A,,Clear,240,2012-10-08 17:35:00
12:55 PM,57.9,27.5,31,30.05,10.0,SW,15.0,27.6,N/A,,Clear,230,2012-10-08 17:55:00
1:15 PM,58.6,27.5,30,30.04,10.0,SSW,18.4,26.5,N/A,,Clear,200,2012-10-08 18:15:00
1:35 PM,59.5,27.5,30,30.03,10.0,SW,16.1,24.2,N/A,,Clear,220,2012-10-08 18:35:00
1:55 PM,59.5,27.1,29,30.02,10.0,SW,17.3,26.5,N/A,,Clear,220,2012-10-08 18:55:00
2:15 PM,59.4,27.3,29,30.01,10.0,SSW,23.0,31.1,N/A,,Clear,200,2012-10-08 19:15:00
2:35 PM,60.3,26.8,28,30.00,10.0,SW,16.1,24.2,N/A,,Clear,230,2012-10-08 19:35:00
3:15 PM,60.4,27.1,28,29.99,10.0,SSW,12.7,25.3,N/A,,Clear,200,2012-10-08 20:15:00
3:35 PM,60.3,26.6,28,29.99,10.0,SSW,15.0,25.3,N/A,,Clear,200,2012-10-08 20:35:00
3:55 PM,59.9,26.6,28,29.98,10.0,SSW,17.3,26.5,N/A,,Clear,200,2012-10-08 20:55:00
4:15 PM,59.9,27.0,29,29.98,10.0,SSW,13.8,24.2,N/A,,Clear,210,2012-10-08 21:15:00
4:35 PM,59.2,27.5,30,29.97,10.0,SSW,16.1,25.3,N/A,,Clear,200,2012-10-08 21:35:00
4:55 PM,58.6,27.3,30,29.98,10.0,SSW,16.1,24.2,N/A,,Clear,210,2012-10-08 21:55:00
5:15 PM,58.1,27.5,31,29.97,10.0,SSW,16.1,23.0,N/A,,Clear,200,2012-10-08 22:15:00
5:35 PM,57.4,27.7,32,29.98,10.0,SSW,16.1,21.9,N/A,,Clear,200,2012-10-08 22:35:00
5:55 PM,56.1,27.7,34,29.98,10.0,SSW,11.5,18.4,N/A,,Clear,200,2012-10-08 22:55:00
6:15 PM,54.3,28.4,37,29.98,10.0,SSW,11.5,17.3,N/A,,Clear,200,2012-10-08 23:15:00
6:35 PM,52.5,29.1,41,29.98,10.0,South,9.2,-,N/A,,Clear,190,2012-10-08 23:35:00
6:55 PM,50.4,30.0,46,29.99,10.0,South,8.1,-,N/A,,Clear,190,2012-10-08 23:55:00
7:35 PM,50.2,30.0,46,29.99,10.0,South,9.2,-,N/A,,Clear,180,2012-10-09 00:35:00
7:55 PM,50.2,30.0,46,29.99,10.0,South,9.2,-,N/A,,Clear,180,2012-10-09 00:55:00
8:15 PM,50.2,30.0,46,29.99,10.0,South,8.1,-,N/A,,Clear,180,2012-10-09 01:15:00
9:15 PM,50.5,31.1,47,29.99,10.0,South,12.7,-,N/A,,Clear,190,2012-10-09 02:15:00
9:35 PM,50.9,31.3,47,30.00,10.0,South,11.5,17.3,N/A,,Clear,190,2012-10-09 02:35:00
9:55 PM,50.2,31.5,49,29.99,10.0,South,12.7,16.1,N/A,,Clear,190,2012-10-09 02:55:00
10:15 PM,49.8,31.6,50,29.99,10.0,SSW,12.7,18.4,N/A,,Clear,200,2012-10-09 03:15:00
10:35 PM,49.1,32.0,52,30.00,10.0,SSW,11.5,-,N/A,,Clear,200,2012-10-09 03:35:00
10:55 PM,48.2,32.0,54,29.99,10.0,South,11.5,-,N/A,,Clear,190,2012-10-09 03:55:00
11:15 PM,47.8,32.2,55,29.98,10.0,South,11.5,16.1,N/A,,Clear,190,2012-10-09 04:15:00
11:35 PM,47.7,32.5,56,29.98,10.0,South,12.7,-,N/A,,Clear,190,2012-10-09 04:35:00
11:55 PM,47.3,32.9,57,29.98,10.0,South,10.4,-,N/A,,Clear,190,2012-10-09 04:55:00